Vertical_Velocity
-0 -1 -0 1 1 -0 0 -1 -0 -3 -2 -2 -5 -2 -1 -2 -2 -1 -2 -1 -1 3 7 -1 12 -13 -16 -19 3 3 4 6 2 -1 0 -1 -0 -0 -2 -1 1 2 1 3
-0 -0 -1 2 0 -0 1 1 0 -1 -1 1 -4 2 4 1 -0 0 -1 -1 -0 -2 2 4 4 7 -0 -6 10 1 1 1 7 2 4 2 -1 -1 1 -0 1 -0 1 1
0 -2 -1 1 -1 -1 -1 0 -1 0 -1 0 1 -0 -0 0 1 -2 -3 0 -0 -2 -1 1 2 2 4 4 -2 -2 3 -4 -3 -2 2 -6 4 1 -2 -0 -1 1 1 1
-2 -3 -0 0 -1 -0 1 -1 -0 0 1 -1 0 -0 -2 -3 -3 -4 -3 -3 -2 1 1 1 3 0 2 3 6 6 -1 1 3 -4 -3 -1 -1 4 -0 -1 1 2 4 -1
-2 -3 0 -1 -1 -1 -0 -1 -0 0 -2 2 1 -3 0 -1 -2 -0 1 -0 -4 -3 1 -1 -2 3 5 4 1 0 2 -2 5 1 1 2 -3 -1 2 -2 -0 1 3 1
-0 -1 0 -1 -0 0 0 -0 -2 -2 -1 -1 -2 -4 7 -2 -1 -3 -4 -0 1 1 -0 -3 0 1 0 2 1 5 1 1 4 -8 0 1 1 2 -1 -0 -1 -3 -2 2
-1 -1 -1 -1 -0 1 1 1 -3 -2 -1 2 1 -1 3 -0 -2 -1 -0 -2 -1 -2 -2 2 2 -5 4 0 1 -4 -3 -1 -1 -1 -4 2 0 1 2 1 1 -2 -6 3
3 1 -1 -2 0 -0 2 1 1 -3 -0 -1 -0 -1 -2 -3 -3 -2 -2 0 1 -1 -3 -4 -1 0 -1 0 -0 2 -3 -3 -2 1 2 2 -5 1 1 0 2 -3 -3 -1
1 3 2 2 -1 0 1 1 -1 -1 3 2 2 -1 -2 -2 -4 -3 -2 -2 -2 -5 -4 -3 0 -2 -2 2 -0 2 -2 4 -5 0 -2 -13 -1 -0 5 4 -1 1 -3 -0
0 0 1 1 -0 -0 -1 -1 -4 -3 -3 -5 -3 -1 -0 0 -2 -2 0 -3 -2 -3 -4 -6 -2 1 -4 -3 1 -3 -1 -3 0 3 0 2 -3 2 -4 -4 1 4 0 -3
1 3 1 1 1 -2 -4 -3 -0 1 -1 -2 -3 2 2 3 4 2 2 3 -2 -2 -4 -2 -5 -2 -1 -3 -3 -1 1 0 -2 5 2 1 3 -1 0 -0 -1 -0 -4 -4
0 -2 -1 -2 -1 2 1 -2 -2 -1 -6 -1 -2 4 2 -1 2 1 1 3 1 -5 -4 -0 -6 -4 -1 -2 -2 -3 -2 3 -2 -2 5 4 -0 -3 1 3 0 1 -1 -1
-2 -4 -3 -3 -2 -0 -1 -2 -0 -1 -1 3 -6 1 -4 -3 -2 -5 -3 -1 1 -3 -4 1 -4 -5 1 -4 1 1 -2 -3 -1 -0 -0 3 -1 -2 1 0 1 -2 -0 3
-2 -1 -2 -1 -1 0 -1 1 -1 -0 -3 -3 3 -8 5 -3 -3 -1 -2 -1 2 -1 -1 -1 -0 -4 1 2 -0 1 -2 -2 2 -3 0 1 1 -2 -6 -4 1 -3 2 -7
-1 -1 -1 0 1 1 -1 3 2 -5 1 -11 6 -6 -4 -6 -1 -3 -1 -0 2 4 -2 -1 -2 -3 -1 2 2 4 1 -2 -1 4 -3 -4 3 6 0 -1 -1 0 2 -1
-2 -3 -3 2 1 -3 -3 1 -2 -2 0 -1 -8 -3 -6 -4 -3 -0 -1 1 1 2 0 2 1 -1 -2 -1 2 4 1 1 1 0 -2 -2 5 2 1 -5 -2 3 4 7
-2 -3 -6 4 2 2 0 -1 1 1 -3 -3 -4 -3 -2 3 -1 -2 0 -4 -2 -0 3 -1 -2 1 1 -5 -0 2 6 4 2 0 2 2 -0 4 6 1 2 -0 -2 -3
3 0 -3 -1 2 0 3 1 -2 -0 -1 -3 -0 -2 -3 -2 2 -3 -5 -1 -0 1 1 -2 -1 -1 -0 -0 -1 1 4 0 -1 2 3 1 3 4 3 -3 -3 2 3 -1
-2 -2 -4 -4 -1 -1 6 -1 -2 -4 5 -2 -1 -3 -5 -5 -3 1 -5 -3 0 2 -2 -0 -1 -2 -0 4 0 -0 1 2 2 1 3 1 2 3 2 1 -1 3 3 1
-0 -0 -1 -3 -4 -4 1 -1 3 0 1 -5 1 -1 -0 -0 -3 4 -6 0 -1 1 -2 -0 -1 -2 9 20 -1 -2 1 2 -5 3 0 -8 -1 4 4 5 -2 2 0 2
-3 -4 0 -3 -2 -1 -3 -2 -1 -2 -3 -2 0 -2 -3 -0 -7 -2 -1 1 -0 1 -3 1 -1 -2 -3 3 5 -4 1 0 -0 -3 1 4 -1 -1 1 3 2 5 4 1
0 -2 2 1 -2 -5 -2 -2 -5 -5 1 -3 -0 -4 -0 -2 -3 -5 -1 -4 3 -1 -0 1 1 2 1 3 -1 -1 1 2 2 2 5 -1 -4 -6 1 -2 4 3 3 2
-5 -3 2 -1 3 -6 -2 2 -6 -1 1 -3 -4 -4 -4 -0 -4 -2 -1 -3 2 -2 -2 -2 -3 -1 14 15 0 0 3 5 3 1 4 2 0 3 -1 -3 -8 -6 -6 -6
-1 -2 -6 -6 8 -1 -1 -3 -4 -3 -2 -2 -0 3 -1 1 -6 -1 -4 -1 1 -1 -2 -4 -1 7 1 2 -1 1 2 3 3 4 1 -2 -1 2 2 -4 -3 5 10 7
3 -4 -1 0 9 -6 3 -3 -2 -2 -3 1 -1 -2 1 -0 -3 -3 -2 0 -3 -0 1 -0 -2 28 9 0 1 4 -1 2 1 1 1 4 2 3 5 2 -1 2 4 3
-3 -0 -6 0 0 -4 6 -3 -2 2 -2 -4 -1 -0 1 2 -0 -3 -2 4 0 -5 -3 0 -4 7 9 10 -0 1 3 0 -2 -4 -0 2 1 2 -3 2 2 -2 1 1
Height
5895 5896 5895 5895 5894 5892 5892 5891 5890 5890 5889 5887 5885 5885 5883 5884 5884 5883 5882 5884 5882 5883 5886 5886 5886 5881 5886 5889 5887 5888 5891 5891 5890 5891 5890 5892 5892 5891 5890 5889 5888 5888 5888 5888
5892 5892 5892 5892 5890 5889 5889 5887 5887 5887 5886 5884 5882 5884 5882 5880 5879 5879 5878 5877 5878 5877 5879 5881 5881 5881 5881 5883 5884 5885 5884 5886 5887 5887 5888 5888 5889 5890 5890 5888 5888 5887 5887 5888
5889 5888 5887 5887 5886 5886 5886 5885 5883 5883 5882 5881 5879 5879 5880 5877 5876 5875 5873 5872 5871 5871 5872 5875 5876 5875 5875 5878 5880 5878 5879 5880 5882 5882 5883 5885 5885 5887 5888 5887 5886 5887 5886 5887
5886 5885 5885 5884 5883 5883 5882 5881 5880 5880 5879 5878 5877 5877 5874 5873 5873 5871 5869 5868 5868 5867 5868 5868 5870 5870 5870 5873 5873 5875 5875 5877 5878 5878 5879 5880 5881 5882 5884 5884 5885 5885 5886 5886
5883 5883 5882 5881 5880 5879 5879 5877 5876 5876 5876 5875 5872 5872 5871 5869 5868 5867 5865 5863 5862 5861 5862 5862 5863 5863 5862 5862 5866 5867 5869 5870 5872 5874 5875 5876 5876 5878 5879 5881 5882 5883 5884 5884
5879 5880 5880 5878 5877 5876 5875 5874 5871 5870 5870 5870 5867 5866 5867 5864 5863 5861 5860 5858 5857 5857 5856 5854 5854 5853 5853 5854 5855 5856 5859 5862 5864 5866 5868 5871 5872 5873 5875 5877 5879 5881 5881 5882
5875 5875 5876 5875 5873 5871 5869 5867 5864 5863 5862 5863 5860 5859 5859 5858 5857 5855 5854 5851 5850 5850 5848 5847 5845 5844 5843 5843 5843 5846 5848 5851 5854 5856 5859 5863 5865 5867 5870 5872 5873 5874 5878 5878
5872 5871 5871 5870 5869 5865 5863 5862 5859 5855 5857 5857 5855 5853 5852 5850 5848 5847 5846 5845 5843 5842 5840 5838 5837 5834 5833 5833 5833 5834 5835 5838 5841 5842 5847 5851 5855 5859 5864 5867 5867 5869 5871 5873
5867 5866 5865 5864 5863 5861 5858 5856 5854 5850 5849 5849 5847 5845 5844 5842 5841 5840 5838 5837 5834 5831 5829 5827 5825 5824 5823 5821 5821 5821 5823 5825 5827 5831 5836 5840 5845 5852 5856 5859 5861 5863 5864 5866
5860 5860 5859 5857 5856 5854 5852 5849 5846 5843 5840 5838 5836 5836 5836 5834 5832 5831 5830 5827 5825 5820 5819 5817 5815 5813 5812 5810 5809 5811 5811 5809 5811 5816 5823 5829 5834 5841 5846 5849 5853 5857 5858 5860
5851 5851 5852 5849 5847 5846 5844 5841 5840 5838 5835 5831 5829 5829 5830 5827 5825 5824 5822 5818 5815 5811 5808 5806 5805 5801 5801 5799 5799 5801 5801 5797 5796 5802 5808 5817 5823 5829 5835 5842 5846 5849 5851 5853
5842 5841 5841 5841 5839 5838 5837 5835 5833 5831 5827 5824 5821 5820 5821 5817 5815 5813 5813 5808 5805 5803 5799 5795 5793 5792 5790 5789 5788 5790 5790 5789 5787 5790 5795 5803 5810 5817 5824 5832 5836 5840 5842 5846
5833 5832 5831 5830 5831 5828 5825 5825 5826 5822 5818 5816 5810 5812 5808 5805 5803 5802 5802 5799 5796 5792 5788 5784 5781 5781 5780 5779 5778 5778 5780 5780 5780 5780 5783 5791 5798 5806 5813 5820 5825 5830 5834 5839
5825 5824 5823 5824 5822 5820 5817 5816 5816 5811 5809 5807 5805 5801 5802 5797 5795 5793 5790 5788 5785 5780 5778 5774 5771 5770 5769 5768 5768 5767 5768 5770 5769 5770 5773 5778 5787 5795 5801 5808 5813 5818 5825 5828
5817 5817 5816 5816 5814 5810 5808 5809 5806 5803 5801 5796 5797 5791 5790 5786 5783 5781 5779 5776 5774 5770 5767 5764 5762 5759 5757 5757 5757 5757 5758 5759 5760 5762 5765 5768 5775 5784 5789 5795 5801 5806 5812 5818
5809 5808 5808 5809 5805 5801 5799 5800 5796 5793 5791 5788 5785 5783 5778 5775 5773 5772 5769 5767 5764 5761 5757 5756 5752 5750 5747 5747 5746 5746 5748 5750 5751 5753 5757 5761 5764 5771 5777 5784 5789 5793 5798 5804
5803 5800 5798 5801 5797 5792 5792 5791 5788 5784 5781 5778 5775 5772 5769 5767 5765 5762 5759 5757 5754 5752 5748 5747 5744 5741 5739 5737 5738 5740 5741 5741 5743 5744 5747 5751 5755 5760 5765 5771 5777 5783 5790 5795
5793 5792 5790 5791 5788 5785 5783 5781 5779 5775 5773 5769 5766 5763 5760 5759 5758 5754 5751 5749 5746 5743 5741 5737 5735 5734 5732 5730 5731 5732 5733 5735 5735 5738 5738 5741 5745 5751 5755 5761 5767 5773 5778 5783
5782 5780 5780 5779 5778 5777 5775 5772 5769 5766 5765 5761 5758 5755 5752 5751 5750 5747 5744 5741 5738 5736 5733 5729 5727 5727 5726 5723 5724 5726 5727 5728 5731 5731 5733 5736 5739 5741 5745 5750 5755 5758 5763 5769
5771 5770 5769 5768 5766 5766 5764 5761 5759 5757 5756 5754 5751 5746 5744 5742 5740 5739 5737 5734 5730 5728 5727 5724 5723 5721 5720 5717 5718 5721 5721 5722 5722 5724 5728 5731 5733 5733 5734 5738 5742 5746 5750 5753
5760 5759 5758 5756 5755 5755 5754 5752 5750 5749 5748 5742 5739 5738 5737 5734 5730 5728 5728 5726 5722 5720 5720 5717 5717 5715 5713 5714 5716 5716 5718 5719 5720 5722 5726 5729 5730 5730 5729 5731 5733 5734 5736 5743
5751 5749 5748 5748 5747 5745 5743 5742 5742 5740 5736 5733 5731 5729 5728 5725 5723 5720 5719 5718 5715 5713 5713 5711 5710 5709 5707 5709 5710 5712 5715 5717 5718 5720 5723 5725 5726 5729 5730 5729 5729 5729 5730 5735
5740 5738 5739 5740 5738 5735 5734 5733 5731 5728 5728 5725 5723 5721 5720 5718 5715 5712 5711 5710 5708 5707 5706 5704 5704 5702 5697 5699 5706 5709 5709 5712 5716 5717 5718 5719 5720 5724 5726 5726 5727 5725 5726 5728
5728 5728 5731 5730 5728 5727 5725 5723 5721 5720 5719 5716 5715 5713 5711 5710 5707 5704 5703 5702 5701 5701 5700 5699 5698 5696 5697 5699 5702 5703 5706 5708 5712 5714 5716 5717 5719 5721 5723 5724 5724 5724 5727 5729
5718 5720 5720 5719 5719 5717 5717 5715 5713 5711 5710 5708 5707 5704 5702 5700 5699 5697 5695 5694 5694 5694 5694 5692 5692 5690 5692 5694 5697 5699 5700 5703 5706 5709 5711 5713 5715 5717 5717 5717 5718 5720 5722 5726
5709 5710 5709 5710 5710 5709 5709 5707 5705 5704 5702 5700 5697 5696 5694 5692 5691 5690 5688 5687 5688 5688 5688 5687 5688 5688 5688 5690 5691 5692 5695 5698 5701 5704 5707 5709 5710 5711 5711 5711 5713 5715 5717 5719